Location: Miramichi City (Newcastle)
(46.9830°N, 65.5670°W)
Time: 17:33:46
(UTC-03:00)

Iridium 12 - Visible Passes

Search period start: 27 August 2016 00:00
Search period end: 06 September 2016 00:00
Orbit: 776 x 779 km, 86.4° (Epoch: 27 August)

Date Brightness Start Highest point End Pass type
(mag) Time Alt. Az. Time Alt. Az. Time Alt. Az.
27 Aug 6.0 21:27:05 10° N 21:32:03 42° E 21:35:27 19° SE visible
27 Aug 7.3 23:08:14 10° NNW 23:12:33 27° W 23:15:56 14° SW visible
28 Aug 6.7 20:54:00 10° NNE 20:58:17 25° ENE 21:02:15 11° SE visible
28 Aug 6.4 22:34:16 10° NNW 22:39:14 46° W 22:42:43 19° SSW visible
29 Aug 5.6 22:00:33 10° N 22:05:48 80° W 22:09:34 19° S visible
29 Aug 8.3 23:44:11 10° WNW 23:45:35 11° WNW 23:46:59 10° W visible
30 Aug 5.6 21:27:03 10° N 21:32:14 59° E 21:36:25 16° SSE visible
30 Aug 7.8 23:08:49 10° NNW 23:12:28 19° WNW 23:16:06 10° WSW visible
31 Aug 6.2 20:53:47 10° NNE 20:58:33 34° ENE 21:03:15 10° SE visible
31 Aug 7.1 22:34:35 10° NNW 22:39:14 33° W 22:43:48 10° SW visible
01 Sep 6.1 22:00:44 10° N 22:05:51 57° W 22:10:43 11° SSW visible
02 Sep 5.5 21:27:06 10° N 21:32:22 83° E 21:37:36 10° S visible
02 Sep 8.2 23:09:43 10° NW 23:12:20 14° WNW 23:14:57 10° WSW visible
03 Sep 5.8 20:53:42 10° N 20:58:45 47° E 21:03:47 10° SSE visible
03 Sep 7.6 22:35:03 10° NNW 22:39:09 24° W 22:43:16 10° SW visible
04 Sep 6.5 20:20:33 10° NNE 20:25:01 28° ENE 20:29:27 10° SE visible
04 Sep 6.7 22:01:00 10° NNW 22:05:53 41° W 22:10:43 10° SSW visible
05 Sep 5.8 21:27:14 10° N 21:32:27 72° W 21:37:38 10° S visible
